sat.trackr.live / text

‹ back to catalog

UNKNOWN

NORAD 81279

UNKNOWN UNKNOWN UNKNOWN

§ Identity

Operator
Country
Launch date
Launch site
Launch vehicle
Mass (kg)
RCS (m²)

External: N2YO · Heavens-Above

§ Orbital elements

Epoch: 2026-09-16T21:46:12.548352Z

Period
101.37 min
Inclination
98.0959°
Eccentricity
0.0204722
Mean motion
14.20538346 rev/d
Perigee alt
676.1 km
Apogee alt
971.0 km
Semi-major
7,201.7 km
B*
2.5186e-4
RAAN
301.5863°
Arg perigee
289.1803°
Mean anomaly
68.7320°
Rev number
50,208

§ Raw data

UNKNOWN1 81279U          26259.90708968  .00000625  00000+0  25186-3 0  99952 81279  98.0959 301.5863 0204722 289.1803  68.7320 14.20538346502080

JSON: /api/v1/satellites/81279 · /tle

For live sub-satellite position, see the globe view (requires WebGL).

§ Visibility from observer

Set your observer location to see the next 7 days of passes ≥ 10°. The values pass through the URL so the page stays shareable.

No JS? Fill the form by hand. The geolocation button needs JavaScript.